Year,Month,Day,Hour,Minute,Value (Times are PST for temperature in C)
2012,03,18,00,00,4.50
2012,03,18,00,01,4.50
2012,03,18,00,02,4.50
2012,03,18,00,03,4.50
2012,03,18,00,04,4.50
2012,03,18,00,05,4.50
2012,03,18,00,06,4.50
2012,03,18,00,07,4.50
2012,03,18,00,08,4.50
2012,03,18,00,09,4.50
2012,03,18,00,10,4.50
2012,03,18,00,11,4.60
2012,03,18,00,12,4.60
2012,03,18,00,13,4.60
2012,03,18,00,14,4.60
2012,03,18,00,15,4.60
2012,03,18,00,16,4.60
2012,03,18,00,17,4.60
2012,03,18,00,18,4.60
2012,03,18,00,19,4.60
2012,03,18,00,20,4.60
2012,03,18,00,21,4.60
2012,03,18,00,22,4.60
2012,03,18,00,23,4.60
2012,03,18,00,24,4.70
2012,03,18,00,25,4.60
2012,03,18,00,26,4.60
2012,03,18,00,27,4.60
2012,03,18,00,28,4.60
2012,03,18,00,29,4.60
2012,03,18,00,30,4.60
2012,03,18,00,31,4.60
2012,03,18,00,32,4.60
2012,03,18,00,33,4.60
2012,03,18,00,34,4.60
2012,03,18,00,35,4.60
2012,03,18,00,36,4.60
2012,03,18,00,37,4.60
2012,03,18,00,38,4.60
2012,03,18,00,39,4.60
2012,03,18,00,40,4.60
2012,03,18,00,41,4.60
2012,03,18,00,42,4.60
2012,03,18,00,43,4.60
2012,03,18,00,44,4.60
2012,03,18,00,45,4.60
2012,03,18,00,46,4.60
2012,03,18,00,47,4.60
2012,03,18,00,48,4.60
2012,03,18,00,49,4.60
2012,03,18,00,50,4.60
2012,03,18,00,51,4.60
2012,03,18,00,52,4.60
2012,03,18,00,53,4.60
2012,03,18,00,54,4.60
2012,03,18,00,55,4.60
2012,03,18,00,56,4.60
2012,03,18,00,57,4.60
2012,03,18,00,58,4.60
2012,03,18,00,59,4.50
2012,03,18,01,00,4.50
2012,03,18,01,01,4.50
2012,03,18,01,02,4.50
2012,03,18,01,03,4.50
2012,03,18,01,04,4.50
2012,03,18,01,05,4.40
2012,03,18,01,06,4.40
2012,03,18,01,07,4.40
2012,03,18,01,08,4.40
2012,03,18,01,09,4.40
2012,03,18,01,10,4.40
2012,03,18,01,11,4.40
2012,03,18,01,12,4.40
2012,03,18,01,13,4.40
2012,03,18,01,14,4.40
2012,03,18,01,15,4.40
2012,03,18,01,16,4.40
2012,03,18,01,17,4.40
2012,03,18,01,18,4.40
2012,03,18,01,19,4.40
2012,03,18,01,20,4.40
2012,03,18,01,21,4.40
2012,03,18,01,22,4.40
2012,03,18,01,23,4.40
2012,03,18,01,24,4.40
2012,03,18,01,25,4.40
2012,03,18,01,26,4.40
2012,03,18,01,27,4.40
2012,03,18,01,28,4.40
2012,03,18,01,29,4.40
2012,03,18,01,30,4.40
2012,03,18,01,31,4.40
2012,03,18,01,32,4.40
2012,03,18,01,33,4.40
2012,03,18,01,34,4.40
2012,03,18,01,35,4.40
2012,03,18,01,36,4.40
2012,03,18,01,37,4.40
2012,03,18,01,38,4.40
2012,03,18,01,39,4.40
2012,03,18,01,40,4.40
2012,03,18,01,41,4.40
2012,03,18,01,42,4.40
2012,03,18,01,43,4.40
2012,03,18,01,44,4.40
2012,03,18,01,45,4.40
2012,03,18,01,46,4.40
2012,03,18,01,47,4.40
2012,03,18,01,48,4.40
2012,03,18,01,49,4.40
2012,03,18,01,50,4.30
2012,03,18,01,51,4.30
2012,03,18,01,52,4.30
2012,03,18,01,53,4.20
2012,03,18,01,54,4.20
2012,03,18,01,55,4.20
2012,03,18,01,56,4.10
2012,03,18,01,57,4.10
2012,03,18,01,58,4.10
2012,03,18,01,59,4.10
2012,03,18,02,00,4.00
2012,03,18,02,01,4.00
2012,03,18,02,02,4.00
2012,03,18,02,03,4.00
2012,03,18,02,04,3.90
2012,03,18,02,05,3.90
2012,03,18,02,06,3.90
2012,03,18,02,07,3.90
2012,03,18,02,08,3.80
2012,03,18,02,09,3.80
2012,03,18,02,10,3.80
2012,03,18,02,11,3.80
2012,03,18,02,12,3.70
2012,03,18,02,13,3.70
2012,03,18,02,14,3.70
2012,03,18,02,15,3.70
2012,03,18,02,16,3.70
2012,03,18,02,17,3.70
2012,03,18,02,18,3.70
2012,03,18,02,19,3.70
2012,03,18,02,20,3.60
2012,03,18,02,21,3.70
2012,03,18,02,22,3.70
2012,03,18,02,23,3.70
2012,03,18,02,24,3.70
2012,03,18,02,25,3.70
2012,03,18,02,26,3.70
2012,03,18,02,27,3.70
2012,03,18,02,28,3.70
2012,03,18,02,29,3.70
2012,03,18,02,30,3.70
2012,03,18,02,31,3.70
2012,03,18,02,32,3.70
2012,03,18,02,33,3.70
2012,03,18,02,34,3.70
2012,03,18,02,35,3.70
2012,03,18,02,36,3.70
2012,03,18,02,37,3.70
2012,03,18,02,38,3.70
2012,03,18,02,39,3.60
2012,03,18,02,40,3.60
2012,03,18,02,41,3.60
2012,03,18,02,42,3.60
2012,03,18,02,43,3.60
2012,03,18,02,44,3.70
2012,03,18,02,45,3.70
2012,03,18,02,46,3.70
2012,03,18,02,47,3.70
2012,03,18,02,48,3.70
2012,03,18,02,49,3.70
2012,03,18,02,50,3.70
2012,03,18,02,51,3.70
2012,03,18,02,52,3.70
2012,03,18,02,53,3.60
2012,03,18,02,54,3.60
2012,03,18,02,55,3.60
2012,03,18,02,56,3.50
2012,03,18,02,57,3.50
2012,03,18,02,58,3.50
2012,03,18,02,59,3.40
2012,03,18,03,00,3.40
2012,03,18,03,01,3.30
2012,03,18,03,02,3.30
2012,03,18,03,03,3.30
2012,03,18,03,04,3.20
2012,03,18,03,05,3.20
2012,03,18,03,06,3.20
2012,03,18,03,07,3.10
2012,03,18,03,08,3.10
2012,03,18,03,09,3.10
2012,03,18,03,10,3.00
2012,03,18,03,11,3.00
2012,03,18,03,12,3.00
2012,03,18,03,13,2.90
2012,03,18,03,14,2.90
2012,03,18,03,15,2.90
2012,03,18,03,16,2.90
2012,03,18,03,17,2.90
2012,03,18,03,18,2.90
2012,03,18,03,19,2.90
2012,03,18,03,20,2.90
2012,03,18,03,21,2.90
2012,03,18,03,22,2.90
2012,03,18,03,23,2.80
2012,03,18,03,24,2.80
2012,03,18,03,25,2.80
2012,03,18,03,26,2.80
2012,03,18,03,27,2.80
2012,03,18,03,28,2.80
2012,03,18,03,29,2.80
2012,03,18,03,30,2.80
2012,03,18,03,31,2.80
2012,03,18,03,32,2.80
2012,03,18,03,33,2.70
2012,03,18,03,34,2.70
2012,03,18,03,35,2.70
2012,03,18,03,36,2.70
2012,03,18,03,37,2.70
2012,03,18,03,38,2.70
2012,03,18,03,39,2.70
2012,03,18,03,40,2.60
2012,03,18,03,41,2.60
2012,03,18,03,42,2.60
2012,03,18,03,43,2.60
2012,03,18,03,44,2.60
2012,03,18,03,45,2.60
2012,03,18,03,46,2.50
2012,03,18,03,47,2.50
2012,03,18,03,48,2.50
2012,03,18,03,49,2.50
2012,03,18,03,50,2.40
2012,03,18,03,51,2.40
2012,03,18,03,52,2.40
2012,03,18,03,53,2.40
2012,03,18,03,54,2.40
2012,03,18,03,55,2.30
2012,03,18,03,56,2.30
2012,03,18,03,57,2.30
2012,03,18,03,58,2.20
2012,03,18,03,59,2.20
2012,03,18,04,00,2.20
2012,03,18,04,01,2.20
2012,03,18,04,02,2.20
2012,03,18,04,03,2.20
2012,03,18,04,04,2.10
2012,03,18,04,05,2.10
2012,03,18,04,06,2.10
2012,03,18,04,07,2.10
2012,03,18,04,08,2.10
2012,03,18,04,09,2.10
2012,03,18,04,10,2.10
2012,03,18,04,11,2.10
2012,03,18,04,12,2.10
2012,03,18,04,13,2.10
2012,03,18,04,14,2.10
2012,03,18,04,15,2.10
2012,03,18,04,16,2.10
2012,03,18,04,17,2.10
2012,03,18,04,18,2.00
2012,03,18,04,19,2.00
2012,03,18,04,20,2.00
2012,03,18,04,21,2.00
2012,03,18,04,22,1.90
2012,03,18,04,23,1.90
2012,03,18,04,24,1.90
2012,03,18,04,25,1.90
2012,03,18,04,26,1.90
2012,03,18,04,27,1.90
2012,03,18,04,28,1.90
2012,03,18,04,29,1.90
2012,03,18,04,30,1.80
2012,03,18,04,31,1.80
2012,03,18,04,32,1.80
2012,03,18,04,33,1.80
2012,03,18,04,34,1.80
2012,03,18,04,35,1.80
2012,03,18,04,36,1.80
2012,03,18,04,37,1.70
2012,03,18,04,38,1.70
2012,03,18,04,39,1.70
2012,03,18,04,40,1.70
2012,03,18,04,41,1.70
2012,03,18,04,42,1.70
2012,03,18,04,43,1.70
2012,03,18,04,44,1.70
2012,03,18,04,45,1.70
2012,03,18,04,46,1.60
2012,03,18,04,47,1.60
2012,03,18,04,48,1.60
2012,03,18,04,49,1.60
2012,03,18,04,50,1.60
2012,03,18,04,51,1.60
2012,03,18,04,52,1.60
2012,03,18,04,53,1.60
2012,03,18,04,54,1.60
2012,03,18,04,55,1.60
2012,03,18,04,56,1.60
2012,03,18,04,57,1.50
2012,03,18,04,58,1.60
2012,03,18,04,59,1.60
2012,03,18,05,00,1.60
2012,03,18,05,01,1.60
2012,03,18,05,02,1.60
2012,03,18,05,03,1.60
2012,03,18,05,04,1.60
2012,03,18,05,05,1.60
2012,03,18,05,06,1.60
2012,03,18,05,07,1.60
2012,03,18,05,08,1.60
2012,03,18,05,09,1.60
2012,03,18,05,10,1.60
2012,03,18,05,11,1.60
2012,03,18,05,12,1.60
2012,03,18,05,13,1.60
2012,03,18,05,14,1.60
2012,03,18,05,15,1.60
2012,03,18,05,16,1.60
2012,03,18,05,17,1.60
2012,03,18,05,18,1.60
2012,03,18,05,19,1.60
2012,03,18,05,20,1.60
2012,03,18,05,21,1.50
2012,03,18,05,22,1.50
2012,03,18,05,23,1.50
2012,03,18,05,24,1.50
2012,03,18,05,25,1.60
2012,03,18,05,26,1.60
2012,03,18,05,27,1.60
2012,03,18,05,28,1.60
2012,03,18,05,29,1.60
2012,03,18,05,30,1.60
2012,03,18,05,31,1.70
2012,03,18,05,32,1.70
2012,03,18,05,33,1.80
2012,03,18,05,34,1.80
2012,03,18,05,35,1.80
2012,03,18,05,36,1.80
2012,03,18,05,37,1.90
2012,03,18,05,38,1.90
2012,03,18,05,39,1.90
2012,03,18,05,40,1.90
2012,03,18,05,41,1.90
2012,03,18,05,42,1.90
2012,03,18,05,43,1.90
2012,03,18,05,44,1.90
2012,03,18,05,45,1.90
2012,03,18,05,46,2.00
2012,03,18,05,47,2.00
2012,03,18,05,48,2.00
2012,03,18,05,49,2.00
2012,03,18,05,50,2.00
2012,03,18,05,51,2.10
2012,03,18,05,52,2.10
2012,03,18,05,53,2.10
2012,03,18,05,54,2.10
2012,03,18,05,55,2.10
2012,03,18,05,56,2.10
2012,03,18,05,57,2.10
2012,03,18,05,58,2.10
2012,03,18,05,59,2.10
2012,03,18,06,00,2.10
2012,03,18,06,01,2.10
2012,03,18,06,02,2.10
2012,03,18,06,03,2.10
2012,03,18,06,04,2.10
2012,03,18,06,05,2.10
2012,03,18,06,06,2.10
2012,03,18,06,07,2.10
2012,03,18,06,08,2.10
2012,03,18,06,09,2.20
2012,03,18,06,10,2.20
2012,03,18,06,11,2.20
2012,03,18,06,12,2.20
2012,03,18,06,13,2.20
2012,03,18,06,14,2.20
2012,03,18,06,15,2.20
2012,03,18,06,16,2.20
2012,03,18,06,17,2.20
2012,03,18,06,18,2.20
2012,03,18,06,19,2.20
2012,03,18,06,20,2.20
2012,03,18,06,21,2.20
2012,03,18,06,22,2.20
2012,03,18,06,23,2.20
2012,03,18,06,24,2.20
2012,03,18,06,25,2.20
2012,03,18,06,26,2.20
2012,03,18,06,27,2.20
2012,03,18,06,28,2.20
2012,03,18,06,29,2.20
2012,03,18,06,30,2.20
2012,03,18,06,31,2.20
2012,03,18,06,32,2.20
2012,03,18,06,33,2.10
2012,03,18,06,34,2.10
2012,03,18,06,35,2.10
2012,03,18,06,36,2.10
2012,03,18,06,37,2.10
2012,03,18,06,38,2.10
2012,03,18,06,39,2.10
2012,03,18,06,40,2.00
2012,03,18,06,41,2.00
2012,03,18,06,42,2.00
2012,03,18,06,43,2.00
2012,03,18,06,44,2.00
2012,03,18,06,45,2.00
2012,03,18,06,46,2.00
2012,03,18,06,47,2.10
2012,03,18,06,48,2.10
2012,03,18,06,49,2.10
2012,03,18,06,50,2.10
2012,03,18,06,51,2.20
2012,03,18,06,52,2.20
2012,03,18,06,53,2.20
2012,03,18,06,54,2.20
2012,03,18,06,55,2.20
2012,03,18,06,56,2.30
2012,03,18,06,57,2.30
2012,03,18,06,58,2.30
2012,03,18,06,59,2.30
2012,03,18,07,00,2.30
2012,03,18,07,01,2.30
2012,03,18,07,02,2.30
2012,03,18,07,03,2.30
2012,03,18,07,04,2.30
2012,03,18,07,05,2.30
2012,03,18,07,06,2.30
2012,03,18,07,07,2.30
2012,03,18,07,08,2.30
2012,03,18,07,09,2.30
2012,03,18,07,10,2.30
2012,03,18,07,11,2.40
2012,03,18,07,12,2.40
2012,03,18,07,13,2.40
2012,03,18,07,14,2.40
2012,03,18,07,15,2.40
2012,03,18,07,16,2.40
2012,03,18,07,17,2.40
2012,03,18,07,18,2.40
2012,03,18,07,19,2.40
2012,03,18,07,20,2.40
2012,03,18,07,21,2.40
2012,03,18,07,22,2.40
2012,03,18,07,23,2.40
2012,03,18,07,24,2.40
2012,03,18,07,25,2.40
2012,03,18,07,26,2.40
2012,03,18,07,27,2.30
2012,03,18,07,28,2.30
2012,03,18,07,29,2.30
2012,03,18,07,30,2.30
2012,03,18,07,31,2.30
2012,03,18,07,32,2.20
2012,03,18,07,33,2.20
2012,03,18,07,34,2.20
2012,03,18,07,35,2.20
2012,03,18,07,36,2.20
2012,03,18,07,37,2.20
2012,03,18,07,38,2.20
2012,03,18,07,39,2.20
2012,03,18,07,40,2.20
2012,03,18,07,41,2.30
2012,03,18,07,42,2.30
2012,03,18,07,43,2.30
2012,03,18,07,44,2.30
2012,03,18,07,45,2.30
2012,03,18,07,46,2.30
2012,03,18,07,47,2.30
2012,03,18,07,48,2.30
2012,03,18,07,49,2.40
2012,03,18,07,50,2.40
2012,03,18,07,51,2.40
2012,03,18,07,52,2.40
2012,03,18,07,53,2.40
2012,03,18,07,54,2.40
2012,03,18,07,55,2.40
2012,03,18,07,56,2.40
2012,03,18,07,57,2.40
2012,03,18,07,58,2.40
2012,03,18,07,59,2.40
2012,03,18,08,00,2.40
2012,03,18,08,01,2.40
2012,03,18,08,02,2.40
2012,03,18,08,03,2.40
2012,03,18,08,04,2.40
2012,03,18,08,05,2.30
2012,03,18,08,06,2.30
2012,03,18,08,07,2.30
2012,03,18,08,08,2.30
2012,03,18,08,09,2.30
2012,03,18,08,10,2.30
2012,03,18,08,11,2.30
2012,03,18,08,12,2.30
2012,03,18,08,13,2.30
2012,03,18,08,14,2.30
2012,03,18,08,15,2.40
2012,03,18,08,16,2.40
2012,03,18,08,17,2.40
2012,03,18,08,18,2.40
2012,03,18,08,19,2.40
2012,03,18,08,20,2.50
2012,03,18,08,21,2.50
2012,03,18,08,22,2.50
2012,03,18,08,23,2.50
2012,03,18,08,24,2.50
2012,03,18,08,25,2.50
2012,03,18,08,26,2.60
2012,03,18,08,27,2.60
2012,03,18,08,28,2.60
2012,03,18,08,29,2.60
2012,03,18,08,30,2.60
2012,03,18,08,31,2.60
2012,03,18,08,32,2.60
2012,03,18,08,33,2.60
2012,03,18,08,34,2.60
2012,03,18,08,35,2.70
2012,03,18,08,36,2.70
2012,03,18,08,37,2.70
2012,03,18,08,38,2.70
2012,03,18,08,39,2.70
2012,03,18,08,40,2.70
2012,03,18,08,41,2.70
2012,03,18,08,42,2.80
2012,03,18,08,43,2.80
2012,03,18,08,44,2.80
2012,03,18,08,45,2.80
2012,03,18,08,46,2.80
2012,03,18,08,47,2.80
2012,03,18,08,48,2.90
2012,03,18,08,49,2.90
2012,03,18,08,50,2.90
2012,03,18,08,51,2.90
2012,03,18,08,52,2.90
2012,03,18,08,53,2.90
2012,03,18,08,54,3.00
2012,03,18,08,55,3.00
2012,03,18,08,56,3.00
2012,03,18,08,57,3.00
2012,03,18,08,58,3.00
2012,03,18,08,59,3.10
2012,03,18,09,00,3.10
2012,03,18,09,01,3.10
2012,03,18,09,02,3.10
2012,03,18,09,03,3.10
2012,03,18,09,04,3.10
2012,03,18,09,05,3.10
2012,03,18,09,06,3.20
2012,03,18,09,07,3.20
2012,03,18,09,08,3.20
2012,03,18,09,09,3.20
2012,03,18,09,10,3.20
2012,03,18,09,11,3.20
2012,03,18,09,12,3.20
2012,03,18,09,13,3.30
2012,03,18,09,14,3.30
2012,03,18,09,15,3.30
2012,03,18,09,16,3.30
2012,03,18,09,17,3.40
2012,03,18,09,18,3.40
2012,03,18,09,19,3.40
2012,03,18,09,20,3.40
2012,03,18,09,21,3.50
2012,03,18,09,22,3.50
2012,03,18,09,23,3.50
2012,03,18,09,24,3.60
2012,03,18,09,25,3.60
2012,03,18,09,26,3.60
2012,03,18,09,27,3.60
2012,03,18,09,28,3.60
2012,03,18,09,29,3.60
2012,03,18,09,30,3.70
2012,03,18,09,31,3.70
2012,03,18,09,32,3.70
2012,03,18,09,33,3.70
2012,03,18,09,34,3.80
2012,03,18,09,35,3.80
2012,03,18,09,36,3.80
2012,03,18,09,37,3.90
2012,03,18,09,38,3.90
2012,03,18,09,39,4.00
2012,03,18,09,40,4.00
2012,03,18,09,41,4.10
2012,03,18,09,42,4.10
2012,03,18,09,43,4.10
2012,03,18,09,44,4.10
2012,03,18,09,45,4.10
2012,03,18,09,46,4.10
2012,03,18,09,47,4.10
2012,03,18,09,48,4.20
2012,03,18,09,49,4.20
2012,03,18,09,50,4.20
2012,03,18,09,51,4.30
2012,03,18,09,52,4.30
2012,03,18,09,53,4.40
2012,03,18,09,54,4.40
2012,03,18,09,55,4.50
2012,03,18,09,56,4.60
2012,03,18,09,57,4.70
2012,03,18,09,58,4.70
2012,03,18,09,59,4.70
2012,03,18,10,00,4.70
2012,03,18,10,01,4.70
2012,03,18,10,02,4.60
2012,03,18,10,03,4.60
2012,03,18,10,04,4.60
2012,03,18,10,05,4.60
2012,03,18,10,06,4.60
2012,03,18,10,07,4.60
2012,03,18,10,08,4.60
2012,03,18,10,09,4.60
2012,03,18,10,10,4.50
2012,03,18,10,11,4.60
2012,03,18,10,12,4.60
2012,03,18,10,13,4.60
2012,03,18,10,14,4.60
2012,03,18,10,15,4.60
2012,03,18,10,16,4.60
2012,03,18,10,17,4.60
2012,03,18,10,18,4.60
2012,03,18,10,19,4.60
2012,03,18,10,20,4.60
2012,03,18,10,21,4.60
2012,03,18,10,22,4.60
2012,03,18,10,23,4.70
2012,03,18,10,24,4.70
2012,03,18,10,25,4.80
2012,03,18,10,26,4.80
2012,03,18,10,27,4.90
2012,03,18,10,28,5.00
2012,03,18,10,29,5.10
2012,03,18,10,30,5.20
2012,03,18,10,31,5.20
2012,03,18,10,32,5.30
2012,03,18,10,33,5.30
2012,03,18,10,34,5.30
2012,03,18,10,35,5.30
2012,03,18,10,36,5.20
2012,03,18,10,37,5.20
2012,03,18,10,38,5.10
2012,03,18,10,39,5.10
2012,03,18,10,40,5.20
2012,03,18,10,41,5.20
2012,03,18,10,42,5.20
2012,03,18,10,43,5.30
2012,03,18,10,44,5.20
2012,03,18,10,45,5.20
2012,03,18,10,46,5.10
2012,03,18,10,47,5.10
2012,03,18,10,48,5.10
2012,03,18,10,49,5.10
2012,03,18,10,50,5.10
2012,03,18,10,51,5.10
2012,03,18,10,52,5.10
2012,03,18,10,53,5.10
2012,03,18,10,54,5.20
2012,03,18,10,55,5.20
2012,03,18,10,56,5.30
2012,03,18,10,57,5.30
2012,03,18,10,58,5.40
2012,03,18,10,59,5.50
2012,03,18,11,00,5.50
2012,03,18,11,01,5.60
2012,03,18,11,02,5.70
2012,03,18,11,03,5.70
2012,03,18,11,04,5.70
2012,03,18,11,05,5.80
2012,03,18,11,06,5.80
2012,03,18,11,07,5.90
2012,03,18,11,08,5.90
2012,03,18,11,09,6.00
2012,03,18,11,10,6.10
2012,03,18,11,11,6.10
2012,03,18,11,12,6.10
2012,03,18,11,13,6.10
2012,03,18,11,14,6.20
2012,03,18,11,15,6.20
2012,03,18,11,16,6.20
2012,03,18,11,17,6.10
2012,03,18,11,18,6.00
2012,03,18,11,19,5.90
2012,03,18,11,20,5.80
2012,03,18,11,21,5.70
2012,03,18,11,22,5.60
2012,03,18,11,23,5.50
2012,03,18,11,24,5.40
2012,03,18,11,25,5.40
2012,03,18,11,26,5.30
2012,03,18,11,27,5.20
2012,03,18,11,28,5.20
2012,03,18,11,29,5.20
2012,03,18,11,30,5.10
2012,03,18,11,31,5.10
2012,03,18,11,32,5.10
2012,03,18,11,33,5.10
2012,03,18,11,34,5.00
2012,03,18,11,35,5.00
2012,03,18,11,36,5.00
2012,03,18,11,37,5.00
2012,03,18,11,38,5.00
2012,03,18,11,39,4.90
2012,03,18,11,40,4.90
2012,03,18,11,41,4.90
2012,03,18,11,42,4.90
2012,03,18,11,43,4.90
2012,03,18,11,44,4.90
2012,03,18,11,45,4.90
2012,03,18,11,46,4.90
2012,03,18,11,47,5.00
2012,03,18,11,48,5.00
2012,03,18,11,49,5.00
2012,03,18,11,50,5.10
2012,03,18,11,51,5.10
2012,03,18,11,52,5.20
2012,03,18,11,53,5.20
2012,03,18,11,54,5.30
2012,03,18,11,55,5.40
2012,03,18,11,56,5.50
2012,03,18,11,57,5.60
2012,03,18,11,58,5.70
2012,03,18,11,59,5.80
2012,03,18,12,00,5.90
2012,03,18,12,01,6.00
2012,03,18,12,02,6.10
2012,03,18,12,03,6.20
2012,03,18,12,04,6.20
2012,03,18,12,05,6.30
2012,03,18,12,06,6.30
2012,03,18,12,07,6.30
2012,03,18,12,08,6.30
2012,03,18,12,09,6.30
2012,03,18,12,10,6.30
2012,03,18,12,11,6.20
2012,03,18,12,12,6.20
2012,03,18,12,13,6.10
2012,03,18,12,14,6.20
2012,03,18,12,15,6.30
2012,03,18,12,16,6.50
2012,03,18,12,17,6.60
2012,03,18,12,18,6.60
2012,03,18,12,19,6.50
2012,03,18,12,20,6.50
2012,03,18,12,21,6.40
2012,03,18,12,22,6.30
2012,03,18,12,23,6.30
2012,03,18,12,24,6.30
2012,03,18,12,25,6.30
2012,03,18,12,26,6.30
2012,03,18,12,27,6.30
2012,03,18,12,28,6.30
2012,03,18,12,29,6.30
2012,03,18,12,30,6.30
2012,03,18,12,31,6.40
2012,03,18,12,32,6.50
2012,03,18,12,33,6.50
2012,03,18,12,34,6.50
2012,03,18,12,35,6.40
2012,03,18,12,36,6.30
2012,03,18,12,37,6.20
2012,03,18,12,38,6.00
2012,03,18,12,39,6.00
2012,03,18,12,40,6.00
2012,03,18,12,41,6.00
2012,03,18,12,42,5.90
2012,03,18,12,43,5.90
2012,03,18,12,44,6.00
2012,03,18,12,45,6.00
2012,03,18,12,46,6.10
2012,03,18,12,47,6.10
2012,03,18,12,48,6.20
2012,03,18,12,49,6.20
2012,03,18,12,50,6.40
2012,03,18,12,51,6.50
2012,03,18,12,52,6.50
2012,03,18,12,53,6.50
2012,03,18,12,54,6.40
2012,03,18,12,55,6.40
2012,03,18,12,56,6.30
2012,03,18,12,57,6.30
2012,03,18,12,58,6.40
2012,03,18,12,59,6.40
2012,03,18,13,00,6.40
2012,03,18,13,01,6.50
2012,03,18,13,02,6.60
2012,03,18,13,03,6.70
2012,03,18,13,04,6.70
2012,03,18,13,05,6.60
2012,03,18,13,06,6.50
2012,03,18,13,07,6.40
2012,03,18,13,08,6.30
2012,03,18,13,09,6.20
2012,03,18,13,10,6.20
2012,03,18,13,11,6.20
2012,03,18,13,12,6.20
2012,03,18,13,13,6.20
2012,03,18,13,14,6.10
2012,03,18,13,15,6.20
2012,03,18,13,16,6.20
2012,03,18,13,17,6.20
2012,03,18,13,18,6.30
2012,03,18,13,19,6.30
2012,03,18,13,20,6.40
2012,03,18,13,21,6.40
2012,03,18,13,22,6.40
2012,03,18,13,23,6.50
2012,03,18,13,24,6.70
2012,03,18,13,25,6.70
2012,03,18,13,26,6.70
2012,03,18,13,27,6.70
2012,03,18,13,28,6.60
2012,03,18,13,29,6.60
2012,03,18,13,30,6.60
2012,03,18,13,31,6.60
2012,03,18,13,32,6.70
2012,03,18,13,33,6.80
2012,03,18,13,34,6.80
2012,03,18,13,35,6.90
2012,03,18,13,36,6.90
2012,03,18,13,37,6.90
2012,03,18,13,38,6.90
2012,03,18,13,39,6.80
2012,03,18,13,40,6.80
2012,03,18,13,41,6.80
2012,03,18,13,42,6.70
2012,03,18,13,43,6.70
2012,03,18,13,44,6.70
2012,03,18,13,45,6.70
2012,03,18,13,46,6.70
2012,03,18,13,47,6.70
2012,03,18,13,48,6.60
2012,03,18,13,49,6.60
2012,03,18,13,50,6.50
2012,03,18,13,51,6.50
2012,03,18,13,52,6.40
2012,03,18,13,53,6.40
2012,03,18,13,54,6.50
2012,03,18,13,55,6.60
2012,03,18,13,56,6.60
2012,03,18,13,57,6.70
2012,03,18,13,58,6.70
2012,03,18,13,59,6.80
2012,03,18,14,00,6.90
2012,03,18,14,01,7.00
2012,03,18,14,02,7.10
2012,03,18,14,03,7.20
2012,03,18,14,04,7.20
2012,03,18,14,05,7.20
2012,03,18,14,06,7.20
2012,03,18,14,07,7.20
2012,03,18,14,08,7.20
2012,03,18,14,09,7.30
2012,03,18,14,10,7.30
2012,03,18,14,11,7.30
2012,03,18,14,12,7.30
2012,03,18,14,13,7.20
2012,03,18,14,14,7.20
2012,03,18,14,15,7.10
2012,03,18,14,16,7.00
2012,03,18,14,17,6.90
2012,03,18,14,18,7.00
2012,03,18,14,19,7.00
2012,03,18,14,20,7.00
2012,03,18,14,21,7.00
2012,03,18,14,22,6.90
2012,03,18,14,23,6.90
2012,03,18,14,24,6.80
2012,03,18,14,25,6.80
2012,03,18,14,26,6.80
2012,03,18,14,27,6.70
2012,03,18,14,28,6.70
2012,03,18,14,29,6.70
2012,03,18,14,30,6.70
2012,03,18,14,31,6.70
2012,03,18,14,32,6.60
2012,03,18,14,33,6.60
2012,03,18,14,34,6.60
2012,03,18,14,35,6.70
2012,03,18,14,36,6.80
2012,03,18,14,37,6.70
2012,03,18,14,38,6.80
2012,03,18,14,39,6.80
2012,03,18,14,40,6.80
2012,03,18,14,41,6.80
2012,03,18,14,42,6.80
2012,03,18,14,43,6.70
2012,03,18,14,44,6.70
2012,03,18,14,45,6.60
2012,03,18,14,46,6.50
2012,03,18,14,47,6.50
2012,03,18,14,48,6.50
2012,03,18,14,49,6.50
2012,03,18,14,50,6.60
2012,03,18,14,51,6.60
2012,03,18,14,52,6.70
2012,03,18,14,53,6.70
2012,03,18,14,54,6.70
2012,03,18,14,55,6.70
2012,03,18,14,56,6.70
2012,03,18,14,57,6.80
2012,03,18,14,58,6.80
2012,03,18,14,59,6.70
2012,03,18,15,00,6.80
2012,03,18,15,01,6.90
2012,03,18,15,02,7.00
2012,03,18,15,03,7.00
2012,03,18,15,04,7.10
2012,03,18,15,05,7.00
2012,03,18,15,06,6.90
2012,03,18,15,07,6.80
2012,03,18,15,08,6.70
2012,03,18,15,09,6.70
2012,03,18,15,10,6.70
2012,03,18,15,11,6.70
2012,03,18,15,12,6.80
2012,03,18,15,13,6.90
2012,03,18,15,14,6.90
2012,03,18,15,15,6.90
2012,03,18,15,16,6.90
2012,03,18,15,17,6.80
2012,03,18,15,18,6.80
2012,03,18,15,19,6.80
2012,03,18,15,20,6.80
2012,03,18,15,21,6.90
2012,03,18,15,22,7.00
2012,03,18,15,23,7.00
2012,03,18,15,24,7.10
2012,03,18,15,25,7.10
2012,03,18,15,26,7.10
2012,03,18,15,27,7.00
2012,03,18,15,28,6.90
2012,03,18,15,29,6.90
2012,03,18,15,30,6.90
2012,03,18,15,31,6.90
2012,03,18,15,32,6.90
2012,03,18,15,33,6.90
2012,03,18,15,34,6.90
2012,03,18,15,35,6.80
2012,03,18,15,36,6.80
2012,03,18,15,37,6.80
2012,03,18,15,38,6.70
2012,03,18,15,39,6.70
2012,03,18,15,40,6.60
2012,03,18,15,41,6.50
2012,03,18,15,42,6.50
2012,03,18,15,43,6.50
2012,03,18,15,44,6.40
2012,03,18,15,45,6.40
2012,03,18,15,46,6.50
2012,03,18,15,47,6.50
2012,03,18,15,48,6.50
2012,03,18,15,49,6.50
2012,03,18,15,50,6.50
2012,03,18,15,51,6.50
2012,03,18,15,52,6.50
2012,03,18,15,53,6.40
2012,03,18,15,54,6.40
2012,03,18,15,55,6.30
2012,03,18,15,56,6.30
2012,03,18,15,57,6.30
2012,03,18,15,58,6.30
2012,03,18,15,59,6.30
2012,03,18,16,00,6.40
2012,03,18,16,01,6.40
2012,03,18,16,02,6.40
2012,03,18,16,03,6.30
2012,03,18,16,04,6.40
2012,03,18,16,05,6.40
2012,03,18,16,06,6.40
2012,03,18,16,07,6.30
2012,03,18,16,08,6.30
2012,03,18,16,09,6.40
2012,03,18,16,10,6.40
2012,03,18,16,11,6.40
2012,03,18,16,12,6.40
2012,03,18,16,13,6.40
2012,03,18,16,14,6.30
2012,03,18,16,15,6.30
2012,03,18,16,16,6.40
2012,03,18,16,17,6.40
2012,03,18,16,18,6.40
2012,03,18,16,19,6.40
2012,03,18,16,20,6.40
2012,03,18,16,21,6.50
2012,03,18,16,22,6.40
2012,03,18,16,23,6.50
2012,03,18,16,24,6.50
2012,03,18,16,25,6.50
2012,03,18,16,26,6.50
2012,03,18,16,27,6.50
2012,03,18,16,28,6.50
2012,03,18,16,29,6.60
2012,03,18,16,30,6.60
2012,03,18,16,31,6.60
2012,03,18,16,32,6.50
2012,03,18,16,33,6.50
2012,03,18,16,34,6.40
2012,03,18,16,35,6.40
2012,03,18,16,36,6.40
2012,03,18,16,37,6.40
2012,03,18,16,38,6.40
2012,03,18,16,39,6.50
2012,03,18,16,40,6.40
2012,03,18,16,41,6.40
2012,03,18,16,42,6.50
2012,03,18,16,43,6.50
2012,03,18,16,44,6.50
2012,03,18,16,45,6.40
2012,03,18,16,46,6.30
2012,03,18,16,47,6.30
2012,03,18,16,48,6.30
2012,03,18,16,49,6.30
2012,03,18,16,50,6.30
2012,03,18,16,51,6.30
2012,03,18,16,52,6.30
2012,03,18,16,53,6.30
2012,03,18,16,54,6.20
2012,03,18,16,55,6.20
2012,03,18,16,56,6.20
2012,03,18,16,57,6.10
2012,03,18,16,58,6.10
2012,03,18,16,59,6.10
2012,03,18,17,00,6.10
2012,03,18,17,01,6.10
2012,03,18,17,02,6.10
2012,03,18,17,03,6.10
2012,03,18,17,04,6.10
2012,03,18,17,05,6.10
2012,03,18,17,06,6.10
2012,03,18,17,07,6.10
2012,03,18,17,08,6.10
2012,03,18,17,09,6.10
2012,03,18,17,10,6.10
2012,03,18,17,11,6.10
2012,03,18,17,12,6.10
2012,03,18,17,13,6.10
2012,03,18,17,14,6.10
2012,03,18,17,15,6.10
2012,03,18,17,16,6.20
2012,03,18,17,17,6.10
2012,03,18,17,18,6.10
2012,03,18,17,19,6.10
2012,03,18,17,20,6.00
2012,03,18,17,21,6.00
2012,03,18,17,22,6.00
2012,03,18,17,23,6.10
2012,03,18,17,24,6.10
2012,03,18,17,25,6.10
2012,03,18,17,26,6.10
2012,03,18,17,27,6.20
2012,03,18,17,28,6.10
2012,03,18,17,29,6.10
2012,03,18,17,30,6.10
2012,03,18,17,31,6.20
2012,03,18,17,32,6.20
2012,03,18,17,33,6.20
2012,03,18,17,34,6.20
2012,03,18,17,35,6.20
2012,03,18,17,36,6.20
2012,03,18,17,37,6.20
2012,03,18,17,38,6.20
2012,03,18,17,39,6.20
2012,03,18,17,40,6.20
2012,03,18,17,41,6.20
2012,03,18,17,42,6.20
2012,03,18,17,43,6.20
2012,03,18,17,44,6.20
2012,03,18,17,45,6.20
2012,03,18,17,46,6.30
2012,03,18,17,47,6.30
2012,03,18,17,48,6.30
2012,03,18,17,49,6.30
2012,03,18,17,50,6.30
2012,03,18,17,51,6.30
2012,03,18,17,52,6.30
2012,03,18,17,53,6.30
2012,03,18,17,54,6.30
2012,03,18,17,55,6.30
2012,03,18,17,56,6.20
2012,03,18,17,57,6.20
2012,03,18,17,58,6.20
2012,03,18,17,59,6.20
2012,03,18,18,00,6.20
2012,03,18,18,01,6.20
2012,03,18,18,02,6.20
2012,03,18,18,03,6.20
2012,03,18,18,04,6.20
2012,03,18,18,05,6.30
2012,03,18,18,06,6.30